EW8001 Weather Reports


Display with metric or nautical units.
time (UTC)temp
F
wind
direction
speed
MPH
gust
MPH
rain 1hr
in
rain 24hr
in
rain mn
in
humidity
%
barometer
mb
20180814151339 73 249 2.0 13.0 0.00 0.51 0.00 73 1016.6
20180814150840 73 251 3.0 9.0 0.00 0.51 0.00 74 1016.5
20180814150333 73 251 2.0 9.0 0.00 0.51 0.00 73 1016.5
20180814145833 73 253 3.0 11.0 0.00 0.51 0.00 74 1016.6
20180814145334 73 257 6.0 11.0 0.00 0.51 0.00 73 1016.6
20180814144834 73 256 0.0 0.0 0.00 0.51 0.00 75 1016.6
20180814144334 73 259 0.0 0.0 0.00 0.51 0.00 75 1016.5
20180814143835 72 261 0.0 0.0 0.00 0.51 0.00 75 1016.4
20180814143336 72 263 0.0 0.0 0.00 0.51 0.00 76 1016.5
20180814142839 72 237 0.0 0.0 0.00 0.51 0.00 75 1016.6
20180814142340 71 241 0.0 0.0 0.00 0.51 0.00 76 1016.6
20180814141842 71 231 0.0 0.0 0.00 0.51 0.00 76 1016.6
20180814141341 71 252 0.0 0.0 0.00 0.51 0.00 76 1016.5
20180814140842 71 251 0.0 0.0 0.00 0.51 0.00 77 1016.4
20180814140335 71 251 0.0 0.0 0.00 0.51 0.00 78 1016.5
20180814135834 71 251 0.0 0.0 0.00 0.51 0.00 79 1016.4
20180814135336 71 251 0.0 0.0 0.00 0.51 0.00 80 1016.5
20180814134838 71 251 0.0 0.0 0.00 0.51 0.00 80 1016.5
20180814134338 71 251 0.0 0.0 0.00 0.51 0.00 79 1016.5
20180814133839 71 251 0.0 0.0 0.00 0.51 0.00 79 1016.5
20180814133341 71 251 0.0 0.0 0.00 0.51 0.00 82 1016.5
20180814132826 70 251 0.0 0.0 0.00 0.51 0.00 86 1016.5
20180814132327 70 251 0.0 0.0 0.00 0.51 0.00 86 1016.5
20180814131827 70 251 0.0 0.0 0.00 0.51 0.00 86 1016.5
20180814131328 70 251 0.0 0.0 0.00 0.51 0.00 87 1016.4
20180814130829 69 251 0.0 0.0 0.00 0.51 0.00 87 1016.5
20180814130342 69 251 0.0 0.0 0.00 0.51 0.00 87 1016.5
20180814125842 69 251 0.0 0.0 0.00 0.51 0.00 87 1016.4
20180814125343 69 251 0.0 0.0 0.00 0.51 0.00 86 1016.4
20180814124823 69 251 0.0 0.0 0.00 0.51 0.00 86 1016.3
20180814124324 68 251 0.0 0.0 0.00 0.51 0.00 85 1016.2
20180814123825 68 251 0.0 0.0 0.00 0.51 0.00 86 1016.2
20180814123328 68 251 0.0 0.0 0.00 0.51 0.00 86 1016.2
20180814122828 68 251 0.0 0.0 0.00 0.51 0.00 86 1016.2
20180814122332 68 251 0.0 0.0 0.00 0.51 0.00 87 1016.3
20180814121832 68 251 0.0 0.0 0.00 0.51 0.00 88 1016.3
20180814121333 67 251 0.0 0.0 0.00 0.51 0.00 89 1016.1
20180814120832 67 251 0.0 0.0 0.00 0.51 0.00 90 1016.2
20180814120325 67 251 0.0 0.0 0.00 0.51 0.00 90 1016.3
20180814115825 66 251 0.0 0.0 0.00 0.51 0.00 90 1016.2
20180814115326 66 251 0.0 0.0 0.00 0.51 0.00 90 1016.2
20180814114827 66 251 0.0 0.0 0.00 0.51 0.00 91 1016.2
20180814114328 66 251 0.0 0.0 0.00 0.51 0.00 91 1016.2
20180814113829 66 251 0.0 0.0 0.00 0.51 0.00 90 1016.2
20180814113332 65 251 0.0 0.0 0.00 0.51 0.00 91 1016.0
20180814112831 65 251 0.0 0.0 0.00 0.51 0.00 91 1016.0
20180814112332 65 251 0.0 0.0 0.00 0.51 0.00 91 1016.0
20180814111836 65 251 0.0 0.0 0.00 0.51 0.00 91 1016.0
20180814111337 65 251 0.0 0.0 0.00 0.51 0.00 91 1016.0
20180814110837 65 251 0.0 0.0 0.00 0.51 0.00 91 1016.0
20180814110330 65 251 0.0 0.0 0.00 0.51 0.00 91 1015.8
20180814105829 65 251 0.0 0.0 0.00 0.51 0.00 91 1015.9
20180814105330 64 251 0.0 0.0 0.00 0.51 0.00 91 1015.9
20180814104831 64 251 0.0 0.0 0.00 0.51 0.00 91 1015.8
20180814104332 64 251 0.0 0.0 0.00 0.51 0.00 91 1015.7
20180814103832 64 251 0.0 0.0 0.00 0.51 0.00 91 1015.6
20180814103334 64 251 0.0 0.0 0.00 0.51 0.00 91 1015.5
20180814102835 64 251 0.0 0.0 0.00 0.51 0.00 91 1015.5
20180814102335 64 251 0.0 0.0 0.00 0.51 0.00 91 1015.5
20180814101836 65 251 0.0 0.0 0.00 0.51 0.00 91 1015.4
20180814101341 65 251 0.0 0.0 0.00 0.51 0.00 91 1015.3
20180814100842 65 251 0.0 0.0 0.00 0.51 0.00 91 1015.3
20180814100334 65 251 0.0 0.0 0.00 0.51 0.00 91 1015.3
20180814095833 65 251 0.0 0.0 0.00 0.51 0.00 91 1015.3
20180814095333 65 251 0.0 0.0 0.00 0.51 0.00 91 1015.2
20180814094834 65 251 0.0 0.0 0.00 0.51 0.00 91 1015.1
20180814094335 65 251 0.0 0.0 0.00 0.51 0.00 91 1015.1
20180814093837 65 251 0.0 0.0 0.00 0.51 0.00 91 1015.0
20180814093339 65 251 0.0 0.0 0.00 0.51 0.00 91 1015.0
20180814092839 65 251 0.0 0.0 0.00 0.51 0.00 91 1015.1
20180814092339 65 251 0.0 0.0 0.00 0.51 0.00 90 1015.1
20180814091839 65 251 0.0 0.0 0.00 0.51 0.00 90 1015.0
20180814091324 65 251 0.0 0.0 0.00 0.51 0.00 91 1015.0
20180814090827 66 251 0.0 0.0 0.00 0.51 0.00 91 1014.9
20180814090340 66 251 0.0 0.0 0.00 0.51 0.00 91 1014.8
20180814085840 66 251 0.0 0.0 0.00 0.51 0.00 90 1014.8
20180814085341 66 251 0.0 0.0 0.00 0.51 0.00 90 1014.8
20180814084842 66 251 0.0 0.0 0.00 0.51 0.00 91 1014.8
20180814084342 66 251 0.0 0.0 0.00 0.51 0.00 91 1014.9
20180814083823 66 251 0.0 0.0 0.00 0.51 0.00 91 1014.9
20180814083325 66 251 0.0 0.0 0.00 0.51 0.00 91 1014.9
20180814082824 66 251 0.0 0.0 0.00 0.51 0.00 91 1014.9
20180814082326 66 251 0.0 0.0 0.00 0.51 0.00 91 1015.0
20180814081826 66 251 0.0 0.0 0.00 0.51 0.00 91 1014.9
20180814081329 66 251 0.0 0.0 0.00 0.51 0.00 91 1015.0
20180814080833 66 251 0.0 0.0 0.00 0.51 0.00 92 1015.0
20180814080329 66 251 0.0 0.0 0.00 0.51 0.00 92 1015.1
20180814075828 66 251 0.0 0.0 0.00 0.51 0.00 92 1015.1
20180814075329 65 251 0.0 0.0 0.00 0.51 0.00 92 1015.1
20180814074831 65 251 0.0 0.0 0.00 0.51 0.00 92 1015.2
20180814074331 65 251 0.0 0.0 0.00 0.51 0.00 92 1015.2
20180814073833 65 251 0.0 0.0 0.00 0.51 0.00 91 1015.2
20180814073334 65 251 0.0 0.0 0.00 0.51 0.00 91 1015.2
20180814072833 65 251 0.0 0.0 0.00 0.51 0.00 91 1015.2
20180814072334 65 251 0.0 0.0 0.00 0.51 0.00 91 1015.3
20180814071835 65 251 0.0 0.0 0.00 0.51 0.00 91 1015.3
20180814071336 65 251 0.0 0.0 0.00 0.51 0.00 91 1015.3
20180814070837 65 251 0.0 0.0 0.00 0.51 0.00 91 1015.3
20180814070334 65 251 0.0 0.0 0.00 0.51 0.00 91 1015.4
20180814065834 65 251 0.0 0.0 0.00 0.51 0.00 91 1015.4
20180814065334 65 251 0.0 0.0 0.00 0.51 0.00 91 1015.4
20180814064833 65 251 0.0 0.0 0.00 0.51 0.00 91 1015.4
20180814064334 65 251 0.0 0.0 0.00 0.51 0.00 91 1015.4
20180814063834 65 251 0.0 0.0 0.00 0.51 0.00 91 1015.5
20180814063337 65 251 0.0 0.0 0.00 0.51 0.00 91 1015.5
20180814062836 65 251 0.0 0.0 0.00 0.51 0.00 91 1015.7
20180814062336 65 251 0.0 0.0 0.00 0.51 0.00 91 1015.7
20180814061836 66 251 0.0 0.0 0.00 0.51 0.00 91 1015.8
20180814061337 66 251 0.0 0.0 0.00 0.51 0.00 91 1015.7
20180814060341 66 251 0.0 0.0 0.00 0.51 0.00 91 1015.8
20180814055840 66 251 0.0 0.0 0.00 0.51 0.00 91 1015.8
20180814055340 66 251 0.0 0.0 0.00 0.51 0.00 91 1015.8
20180814054825 66 251 0.0 0.0 0.00 0.51 0.00 91 1015.8
20180814054326 66 251 0.0 0.0 0.00 0.51 0.00 91 1015.9
20180814053827 66 251 0.0 0.0 0.00 0.51 0.00 91 1015.9
20180814053329 66 251 0.0 0.0 0.00 0.51 0.00 91 1015.9
20180814052829 66 251 0.0 0.0 0.00 0.51 0.00 91 1015.9
20180814052329 66 251 0.0 0.0 0.00 0.51 0.00 91 1016.0
20180814051830 66 251 0.0 0.0 0.00 0.51 0.00 91 1016.0
20180814051331 66 251 0.0 0.0 0.00 0.51 0.00 91 1016.0
20180814050830 66 251 0.0 0.0 0.00 0.51 0.00 91 1016.1
20180814050343 66 251 0.0 0.0 0.00 0.51 0.00 91 1016.1
20180814045843 66 251 0.0 0.0 0.00 0.51 0.00 91 1016.1
20180814045324 66 251 0.0 0.0 0.00 0.51 0.00 91 1016.2
20180814044826 66 251 0.0 0.0 0.00 0.51 0.00 91 1016.2
20180814044330 66 251 0.0 0.0 0.00 0.51 0.00 91 1016.3
20180814043831 66 251 0.0 0.0 0.00 0.51 0.00 91 1016.3
20180814043334 66 251 0.0 0.0 0.00 0.51 0.00 91 1016.4
20180814042834 66 251 0.0 0.0 0.00 0.51 0.00 91 1016.4
20180814042334 66 251 0.0 0.0 0.00 0.51 0.00 91 1016.4
20180814041835 66 251 0.0 0.0 0.00 0.51 0.00 91 1016.3
20180814041337 66 251 0.0 0.0 0.00 0.51 0.00 91 1016.2
20180814040837 66 251 0.0 0.0 0.00 0.51 0.00 91 1016.2
20180814040330 66 251 0.0 0.0 0.00 0.51 0.00 91 1016.0
20180814035830 67 251 0.0 0.0 0.00 0.51 0.51 90 1016.0
20180814035331 67 251 0.0 0.0 0.00 0.51 0.51 90 1016.0
20180814034832 67 251 0.0 0.0 0.00 0.51 0.51 90 1015.9
20180814034333 67 251 0.0 0.0 0.00 0.51 0.51 90 1015.8
20180814033838 67 251 0.0 0.0 0.00 0.51 0.51 91 1015.8
20180814033341 67 251 0.0 0.0 0.00 0.51 0.51 91 1015.8
20180814032841 67 251 0.0 0.0 0.00 0.51 0.51 91 1015.7
20180814032340 67 251 0.0 0.0 0.00 0.51 0.51 90 1015.8
20180814031841 67 251 0.0 0.0 0.00 0.51 0.51 90 1016.0
20180814031342 67 251 0.0 0.0 0.00 0.51 0.51 90 1015.8
20180814030843 67 251 0.0 0.0 0.00 0.51 0.51 90 1015.7
20180814030336 67 251 0.0 0.0 0.00 0.51 0.51 90 1015.8
20180814025837 67 251 0.0 0.0 0.00 0.51 0.51 90 1015.7
20180814025337 67 251 0.0 0.0 0.00 0.51 0.51 90 1015.6
20180814024838 67 251 0.0 0.0 0.00 0.51 0.51 90 1015.6
20180814024339 67 251 0.0 0.0 0.00 0.51 0.51 90 1015.5
20180814023824 68 251 0.0 0.0 0.00 0.51 0.51 90 1015.5
20180814023327 68 251 0.0 0.0 0.00 0.51 0.51 90 1015.5
20180814022827 68 251 0.0 0.0 0.00 0.51 0.51 90 1015.5
20180814022327 68 251 0.0 0.0 0.00 0.51 0.51 90 1015.5
20180814021828 68 251 0.0 0.0 0.01 0.51 0.51 90 1015.4
20180814021328 68 251 0.0 0.0 0.01 0.51 0.51 90 1015.5
20180814020829 68 251 0.0 0.0 0.04 0.51 0.51 90 1015.6
20180814020340 68 251 0.0 0.0 0.10 0.51 0.51 89 1015.7
20180814015840 68 251 0.0 0.0 0.20 0.51 0.51 89 1015.7
20180814015340 68 251 0.0 0.0 0.27 0.51 0.51 89 1015.6
20180814014840 68 251 0.0 0.0 0.28 0.51 0.51 89 1015.6
20180814014341 68 251 0.0 0.0 0.28 0.51 0.51 89 1015.6
20180814013841 68 251 0.0 0.0 0.28 0.51 0.51 89 1015.7
20180814013326 68 251 0.0 0.0 0.28 0.51 0.51 89 1015.7
20180814012825 69 251 0.0 0.0 0.28 0.51 0.51 89 1015.7
20180814012327 69 251 0.0 0.0 0.28 0.51 0.51 89 1015.8
20180814011827 69 251 0.0 0.0 0.27 0.50 0.50 88 1015.8
20180814011328 69 251 0.0 0.0 0.27 0.50 0.50 88 1015.6
20180814010828 69 251 0.0 5.0 0.24 0.47 0.47 88 1015.6
20180814010342 69 251 3.0 12.0 0.16 0.39 0.40 87 1015.8
20180814005842 70 251 6.0 12.0 0.06 0.29 0.29 86 1015.9
20180814005343 71 265 8.0 17.0 0.01 0.24 0.24 84 1016.0
20180814004823 72 309 2.0 9.0 0.00 0.23 0.23 84 1015.9
20180814004324 72 333 5.0 10.0 0.00 0.23 0.23 83 1015.6
20180814003825 72 333 5.0 10.0 0.00 0.23 0.23 81 1015.6
20180814003327 73 309 6.0 13.0 0.00 0.23 0.23 78 1015.6
20180814002830 73 336 8.0 13.0 0.00 0.23 0.23 83 1015.7
20180814002331 74 265 0.0 0.0 0.00 0.23 0.23 87 1015.3
20180814001832 74 265 0.0 0.0 0.00 0.23 0.23 87 1015.3
20180814001333 74 265 0.0 0.0 0.00 0.23 0.23 86 1015.4
20180814000834 75 265 0.0 0.0 0.00 0.23 0.23 86 1015.4
20180814000326 75 265 0.0 0.0 0.00 0.23 0.23 85 1015.4
20180813235826 75 265 0.0 0.0 0.00 0.23 0.23 85 1015.5
20180813235327 75 265 0.0 0.0 0.00 0.23 0.23 84 1015.5
20180813234828 75 265 0.0 0.0 0.00 0.23 0.23 84 1015.4
20180813234328 76 265 0.0 0.0 0.00 0.23 0.23 82 1015.3
20180813233829 77 265 0.0 0.0 0.00 0.23 0.23 81 1015.3
20180813233330 77 265 0.0 0.0 0.00 0.23 0.23 79 1015.4
20180813232831 77 265 0.0 0.0 0.00 0.23 0.23 77 1015.4
20180813232336 77 265 0.0 0.0 0.00 0.23 0.23 76 1015.3
20180813231837 78 265 0.0 0.0 0.00 0.23 0.23 74 1015.2
20180813231338 78 265 0.0 0.0 0.00 0.23 0.23 76 1015.2
20180813230840 78 265 0.0 0.0 0.00 0.23 0.23 79 1015.2
20180813230333 77 265 0.0 0.0 0.00 0.23 0.23 78 1015.2
20180813225833 78 265 0.0 0.0 0.00 0.23 0.23 78 1015.1
20180813225333 77 265 0.0 0.0 0.00 0.23 0.23 78 1015.1
20180813224833 77 265 0.0 0.0 0.00 0.23 0.23 78 1015.1
20180813224334 77 265 0.0 0.0 0.00 0.23 0.23 78 1015.2
20180813223835 77 265 0.0 0.0 0.00 0.23 0.23 79 1015.2
20180813223338 77 265 0.0 0.0 0.00 0.23 0.23 80 1015.2
20180813222838 77 265 0.0 0.0 0.00 0.23 0.23 80 1015.2
20180813222338 76 265 0.0 0.0 0.00 0.23 0.23 82 1015.2
20180813221842 76 265 0.0 0.0 0.00 0.23 0.23 81 1015.1
20180813221343 76 265 0.0 0.0 0.00 0.23 0.23 80 1015.2
20180813220824 76 265 0.0 0.0 0.00 0.23 0.23 82 1015.2
20180813220337 75 265 0.0 0.0 0.00 0.23 0.23 83 1015.2
20180813215836 75 265 0.0 0.0 0.00 0.23 0.23 84 1015.2
20180813215336 75 265 0.0 0.0 0.00 0.23 0.23 84 1015.3
20180813214838 75 265 0.0 0.0 0.00 0.23 0.23 84 1015.2
20180813214338 75 265 0.0 0.0 0.00 0.23 0.23 84 1015.3
20180813213837 75 265 0.0 0.0 0.00 0.23 0.23 84 1015.3
20180813213340 75 265 0.0 0.0 0.00 0.23 0.23 84 1015.2
20180813212840 74 265 0.0 0.0 0.00 0.23 0.23 85 1015.0
20180813212341 74 265 0.0 0.0 0.00 0.23 0.23 85 1015.1
20180813211826 74 265 0.0 0.0 0.00 0.23 0.23 85 1015.1
20180813211325 74 265 0.0 0.0 0.00 0.23 0.23 86 1015.2
20180813210826 74 266 0.0 0.0 0.00 0.23 0.23 86 1015.3
20180813210340 73 266 0.0 0.0 0.00 0.23 0.23 87 1015.4
20180813205840 73 266 0.0 0.0 0.00 0.23 0.23 87 1015.5
20180813205341 72 266 0.0 0.0 0.00 0.23 0.23 86 1015.6
20180813204842 72 266 0.0 0.0 0.01 0.23 0.23 86 1015.8
20180813204342 72 267 0.0 0.0 0.01 0.23 0.23 86 1015.8
20180813203842 72 269 0.0 0.0 0.02 0.23 0.23 84 1015.6
20180813203344 72 269 0.0 0.0 0.04 0.23 0.23 85 1015.6
20180813202843 71 269 0.0 0.0 0.08 0.23 0.23 85 1015.6
20180813202324 71 269 0.0 0.0 0.13 0.23 0.23 87 1015.6
20180813201824 71 269 0.0 0.0 0.14 0.23 0.23 88 1015.7
20180813201331 71 269 0.0 0.0 0.15 0.23 0.23 89 1015.7
20180813200831 70 269 0.0 0.0 0.15 0.23 0.23 89 1015.7
20180813200325 70 269 0.0 0.0 0.15 0.23 0.23 88 1015.7
20180813195825 70 269 0.0 0.0 0.15 0.23 0.23 88 1015.8
20180813195326 70 269 0.0 0.0 0.15 0.23 0.23 89 1015.7
20180813194828 70 269 0.0 0.0 0.14 0.22 0.22 89 1015.8
20180813194329 70 269 0.0 0.0 0.14 0.22 0.22 89 1016.3
20180813193830 70 269 0.0 0.0 0.13 0.21 0.21 89 1016.6
20180813193332 71 269 0.0 0.0 0.10 0.18 0.18 89 1016.4
20180813192831 71 269 0.0 0.0 0.07 0.15 0.15 88 1016.2
20180813192331 71 269 0.0 0.0 0.02 0.10 0.10 88 1016.2
20180813191831 71 269 0.0 0.0 0.03 0.09 0.09 88 1016.2
20180813191332 71 269 0.0 7.0 0.04 0.08 0.08 87 1016.3
20180813190835 71 269 0.0 11.0 0.08 0.08 0.08 87 1016.5
20180813190327 71 290 7.0 11.0 0.08 0.08 0.08 86 1016.8
20180813185826 72 322 0.0 0.0 0.08 0.08 0.08 87 1016.7
20180813185327 72 322 0.0 0.0 0.08 0.08 0.08 87 1016.6
20180813184828 72 322 0.0 0.0 0.08 0.08 0.08 87 1016.6
20180813184330 72 322 0.0 0.0 0.08 0.08 0.08 87 1016.5
20180813183831 71 322 0.0 0.0 0.08 0.08 0.08 87 1016.5
20180813183333 71 322 0.0 0.0 0.08 0.08 0.08 87 1016.5
20180813182834 71 322 0.0 0.0 0.08 0.08 0.08 86 1016.6
20180813182335 71 322 0.0 0.0 0.08 0.08 0.08 85 1016.8
20180813181834 72 323 0.0 0.0 0.06 0.06 0.06 84 1016.8
20180813181335 73 322 0.0 0.0 0.03 0.03 0.03 81 1016.9
20180813180836 73 350 0.0 0.0 0.00 0.00 0.00 78 1016.9
20180813180334 74 71 0.0 0.0 0.00 0.00 0.00 78 1016.8
20180813175834 74 72 0.0 0.0 0.00 0.00 0.00 77 1016.8
20180813175334 75 80 0.0 0.0 0.00 0.00 0.00 76 1016.7
20180813174834 76 59 0.0 0.0 0.00 0.00 0.00 73 1016.6
20180813174335 76 78 0.0 0.0 0.00 0.00 0.00 72 1016.6
20180813173835 77 83 0.0 0.0 0.00 0.00 0.00 72 1016.6
20180813173337 79 11 0.0 0.0 0.00 0.00 0.00 71 1016.7
20180813172837 80 222 0.0 0.0 0.00 0.00 0.00 71 1016.7
20180813172337 80 222 0.0 0.0 0.00 0.00 0.00 69 1016.6
20180813171838 80 222 0.0 0.0 0.00 0.00 0.00 69 1016.6
20180813171338 80 222 0.0 0.0 0.00 0.00 0.00 70 1016.6
20180813170837 80 222 0.0 0.0 0.00 0.00 0.00 71 1016.7
20180813170330 79 222 0.0 0.0 0.00 0.00 0.00 71 1016.7
20180813165833 79 222 0.0 0.0 0.00 0.00 0.00 72 1016.7
20180813165334 78 222 0.0 0.0 0.00 0.00 0.00 72 1016.8
20180813164835 78 222 0.0 0.0 0.00 0.00 0.00 72 1016.9
20180813164335 79 223 0.0 0.0 0.00 0.00 0.00 72 1016.8
20180813163837 79 222 0.0 0.0 0.00 0.00 0.00 72 1016.8
20180813163338 80 222 0.0 0.0 0.00 0.00 0.00 70 1016.9
20180813162837 79 196 0.0 0.0 0.00 0.00 0.00 72 1017.0
20180813162338 79 196 0.0 0.0 0.00 0.00 0.00 72 1017.0
20180813161839 78 196 0.0 0.0 0.00 0.00 0.00 74 1017.1
20180813161340 77 196 0.0 0.0 0.00 0.00 0.00 74 1017.2
20180813160841 78 196 0.0 0.0 0.00 0.00 0.00 75 1017.3
20180813160333 78 196 0.0 0.0 0.00 0.00 0.00 74 1017.4
20180813155831 78 196 0.0 0.0 0.00 0.00 0.00 74 1017.5
20180813155336 79 187 0.0 0.0 0.00 0.00 0.00 72 1017.5
20180813154835 79 187 0.0 0.0 0.00 0.00 0.00 73 1017.6
20180813154336 78 187 0.0 0.0 0.00 0.00 0.00 75 1017.6
20180813153838 77 187 0.0 0.0 0.00 0.00 0.00 77 1017.7
20180813153340 77 187 0.0 0.0 0.00 0.00 0.00 77 1017.8
20180813152839 77 173 0.0 0.0 0.00 0.00 0.00 79 1017.9
20180813152340 76 173 0.0 0.0 0.00 0.00 0.00 79 1017.9
20180813151840 76 173 0.0 0.0 0.00 0.00 0.00 79 1018.0